Lincoln County, Oregon, United States
Lat: 44.65N, Lon: 123.85W
Wx Zone: ORZ004
Local Info
Past Weather Observations for Friday, September 26, 2014

NOTE: This archive is for the closest National Weather Service station to Lincoln County. Information may differ from the station used for current weather conditions.

Click here for Long-term Archive

Time Weather Temperature Dewpoint Humidity Pressure Winds Precip Visibility
23:55
Clear
52°F / 11°C 52°F / 11°C 100% 30.09 in
(1019 mb)
Calm - 10SM
23:35
Clear
52°F / 11°C 52°F / 11°C 100% 30.09 in
(1019 mb)
Calm - 10SM
23:15
Mostly Cloudy
54°F / 12°C 52°F / 11°C 94% 30.09 in
(1019 mb)
Calm - 10SM
22:55
Partly Cloudy
54°F / 12°C 52°F / 11°C 94% 30.12 in
(1020 mb)
Calm - 10SM
22:35
Clear
54°F / 12°C 52°F / 11°C 94% 30.12 in
(1020 mb)
Calm - 10SM
22:15
Clear
54°F / 12°C 54°F / 12°C 100% 30.12 in
(1020 mb)
Calm - 10SM
21:55
Clear
54°F / 12°C 52°F / 11°C 94% 30.12 in
(1020 mb)
Calm - 10SM
21:35
Clear
55°F / 13°C 54°F / 12°C 94% 30.12 in
(1020 mb)
Calm - 10SM
21:15
Clear
55°F / 13°C 54°F / 12°C 94% 30.12 in
(1020 mb)
Calm - 10SM
20:55
Partly Cloudy
57°F / 14°C 55°F / 13°C 94% 30.09 in
(1019 mb)
Calm - 10SM
20:35
Clear
59°F / 15°C 55°F / 13°C 88% 30.09 in
(1019 mb)
E 3.5 mph
(E 6 kph)
- 10SM
20:15
Partly Cloudy
59°F / 15°C 55°F / 13°C 88% 30.09 in
(1019 mb)
E 4.6 mph
(E 7 kph)
- 10SM
19:55
Overcast
61°F / 16°C 57°F / 14°C 88% 30.09 in
(1019 mb)
Calm - 10SM
19:35
Overcast
61°F / 16°C 57°F / 14°C 88% 30.09 in
(1019 mb)
Calm - 10SM
19:15
Overcast
61°F / 16°C 57°F / 14°C 88% 30.09 in
(1019 mb)
Calm - 10SM
18:55
Overcast
59°F / 15°C 57°F / 14°C 94% 30.09 in
(1019 mb)
Calm - 7SM
18:35
Overcast
61°F / 16°C 57°F / 14°C 88% 30.09 in
(1019 mb)
Calm - 10SM
18:15
Overcast
61°F / 16°C 57°F / 14°C 88% 30.09 in
(1019 mb)
Calm - 10SM
17:55
Overcast
Fog And Mist
61°F / 16°C 59°F / 15°C 94% 30.09 in
(1019 mb)
Calm - 5SM
17:35
Mostly Cloudy
Fog And Mist
61°F / 16°C 59°F / 15°C 94% 30.09 in
(1019 mb)
SW 3.5 mph
(SW 6 kph)
- 5SM
17:15
Partly Cloudy
Fog And Mist
61°F / 16°C 59°F / 15°C 94% 30.09 in
(1019 mb)
SW 3.5 mph
(SW 6 kph)
- 5SM
16:55
Clear
63°F / 17°C 59°F / 15°C 88% 30.09 in
(1019 mb)
SW 5.8 mph
(SW 9 kph)
- 7SM
16:35
Partly Cloudy
63°F / 17°C 59°F / 15°C 88% 30.09 in
(1019 mb)
SW 6.9 mph
(SW 11 kph)
- 7SM
16:15
Partly Cloudy
63°F / 17°C 59°F / 15°C 88% 30.09 in
(1019 mb)
SW 6.9 mph
(SW 11 kph)
- 7SM
16:00
Clear
63°F / 17°C 59°F / 15°C 88% 30.09 in
(1019 mb)
SW 8.1 mph
(SW 13 kph)
- 7SM
12:15
Mostly Cloudy
64°F / 18°C 57°F / 14°C 78% 30.09 in
(1019 mb)
SSE 18.4 mph
(SSE 30 kph)
- 7SM
11:55
Partly Cloudy
64°F / 18°C 57°F / 14°C 78% 30.09 in
(1019 mb)
SSE 16.1 mph
(SSE 26 kph)
- 7SM
11:35
Partly Cloudy
64°F / 18°C 57°F / 14°C 78% 30.09 in
(1019 mb)
SW 18.4 mph
(SW 30 kph)
- 7SM
11:15
Mostly Cloudy
64°F / 18°C 55°F / 13°C 73% 30.09 in
(1019 mb)
SSE 19.6 mph
(SSE 32 kph)
- 7SM
10:55
Mostly Cloudy
Hazy
63°F / 17°C 55°F / 13°C 77% 30.09 in
(1019 mb)
SSE 16.1 mph
(SSE 26 kph)
- 5SM
10:35
Partly Cloudy
64°F / 18°C 57°F / 14°C 78% 30.09 in
(1019 mb)
SSE 18.4 mph
(SSE 30 kph)
- 7SM
10:15
Mostly Cloudy
64°F / 18°C 57°F / 14°C 78% 30.06 in
(1018 mb)
S 17.3 mph
(S 28 kph)
- 7SM
09:55
Mostly Cloudy
64°F / 18°C 55°F / 13°C 73% 30.06 in
(1018 mb)
S 13.8 mph
(S 22 kph)
- 10SM
09:35
Partly Cloudy
63°F / 17°C 55°F / 13°C 77% 30.06 in
(1018 mb)
S 12.7 mph
(S 20 kph)
- 7SM
09:15
Partly Cloudy
63°F / 17°C 55°F / 13°C 77% 30.06 in
(1018 mb)
SW 13.8 mph
(SW 22 kph)
- 7SM
08:55
Partly Cloudy
63°F / 17°C 55°F / 13°C 77% 30.06 in
(1018 mb)
SSE 15 mph
(SSE 24 kph)
- 7SM
08:35
Overcast
63°F / 17°C 55°F / 13°C 77% 30.06 in
(1018 mb)
SSE 15 mph
(SSE 24 kph)
- 10SM
08:15
Overcast
63°F / 17°C 55°F / 13°C 77% 30.06 in
(1018 mb)
S 13.8 mph
(S 22 kph)
- 10SM
07:55
Mostly Cloudy
61°F / 16°C 55°F / 13°C 83% 30.04 in
(1017 mb)
S 11.5 mph
(S 19 kph)
- 10SM
07:35
Mostly Cloudy
61°F / 16°C 55°F / 13°C 83% 30.04 in
(1017 mb)
S 9.2 mph
(S 15 kph)
- 10SM
07:15
Overcast
61°F / 16°C 55°F / 13°C 83% 30.04 in
(1017 mb)
S 8.1 mph
(S 13 kph)
- 10SM
06:55
Mostly Cloudy
61°F / 16°C 55°F / 13°C 83% 30.04 in
(1017 mb)
S 11.5 mph
(S 19 kph)
- 10SM
06:35
Mostly Cloudy
59°F / 15°C 55°F / 13°C 88% 30.04 in
(1017 mb)
S 6.9 mph
(S 11 kph)
- 10SM
06:15
Mostly Cloudy
59°F / 15°C 55°F / 13°C 88% 30.01 in
(1016 mb)
S 8.1 mph
(S 13 kph)
- 7SM
05:55
Partly Cloudy
59°F / 15°C 55°F / 13°C 88% 30.01 in
(1016 mb)
S 10.4 mph
(S 17 kph)
- 10SM
05:35
Partly Cloudy
59°F / 15°C 55°F / 13°C 88% 30.01 in
(1016 mb)
S 11.5 mph
(S 19 kph)
- 7SM
05:15
Mostly Cloudy
61°F / 16°C 55°F / 13°C 83% 30.01 in
(1016 mb)
S 13.8 mph
(S 22 kph)
- 10SM
04:55
Mostly Cloudy
61°F / 16°C 55°F / 13°C 83% 30.01 in
(1016 mb)
S 12.7 mph
(S 20 kph)
- 7SM
04:35
Mostly Cloudy
61°F / 16°C 55°F / 13°C 83% 30.01 in
(1016 mb)
S 12.7 mph
(S 20 kph)
- 7SM
04:15
Mostly Cloudy
61°F / 16°C 55°F / 13°C 83% 30.01 in
(1016 mb)
S 13.8 mph
(S 22 kph)
- 10SM
03:55
Mostly Cloudy
61°F / 16°C 55°F / 13°C 83% 30.01 in
(1016 mb)
S 12.7 mph
(S 20 kph)
- 10SM
03:35
Mostly Cloudy
61°F / 16°C 55°F / 13°C 83% 30.01 in
(1016 mb)
S 12.7 mph
(S 20 kph)
- 10SM
03:15
Partly Cloudy
61°F / 16°C 55°F / 13°C 83% 30.01 in
(1016 mb)
S 10.4 mph
(S 17 kph)
- 7SM
02:55
Overcast
61°F / 16°C 55°F / 13°C 83% 30.01 in
(1016 mb)
S 15 mph
(S 24 kph)
- 7SM
02:35
Mostly Cloudy
61°F / 16°C 55°F / 13°C 83% 30.01 in
(1016 mb)
S 12.7 mph
(S 20 kph)
- 7SM
02:15
Mostly Cloudy
61°F / 16°C 55°F / 13°C 83% 30.01 in
(1016 mb)
S 15 mph
(S 24 kph)
- 7SM
01:55
Partly Cloudy
61°F / 16°C 55°F / 13°C 83% 29.98 in
(1015 mb)
S 11.5 mph
(S 19 kph)
- 10SM
01:35
Overcast
61°F / 16°C 55°F / 13°C 83% 29.98 in
(1015 mb)
S 13.8 mph
(S 22 kph)
- 7SM
01:15
Mostly Cloudy
61°F / 16°C 55°F / 13°C 83% 29.98 in
(1015 mb)
S 12.7 mph
(S 20 kph)
- 7SM
00:55
Partly Cloudy
61°F / 16°C 55°F / 13°C 83% 29.98 in
(1015 mb)
S 10.4 mph
(S 17 kph)
- 7SM
00:35
Mostly Cloudy
61°F / 16°C 55°F / 13°C 83% 29.98 in
(1015 mb)
S 15 mph
(S 24 kph)
- 7SM
00:15
Partly Cloudy
61°F / 16°C 55°F / 13°C 83% 29.98 in
(1015 mb)
S 16.1 mph
(S 26 kph)
- 7SM
Time Weather Temperature Dewpoint Humidity Pressure Winds Precip Visibility


Weather for websites

WeatherForYou.com, LLC is not responsible for any damages or problems caused by this service. Current weather conditions are obtained from the closest station including government and personal stations which may have varying degrees of accuracy. Weather forecasts are derived from the NOAA NDFD. Like all things, this site belongs to Jesus Christ... He just trusts me to maintain it. If you have any questions or comments email webmaster@weatherforyou.com

Copyright © 2014, WeatherForYou.com LLC. All rights reserved.